| time (UTC) | temp F | wind direction | speed knots | gust knots | rain 1hr in | rain 24hr in | rain mn in | humidity % | barometer mb |
| 20260504050020 | 41 | 185 | 0.9 | 1.7 | 0.00 | 0.17 | 0.00 | 84 | 1017.8 |
| 20260504045044 | 42 | 180 | 0.9 | 1.7 | 0.00 | 0.17 | 0.00 | 83 | 1017.9 |
| 20260504044029 | 42 | 183 | 0.9 | 1.7 | 0.00 | 0.17 | 0.00 | 83 | 1017.9 |
| 20260504043015 | 42 | 180 | 1.7 | 1.7 | 0.00 | 0.17 | 0.00 | 81 | 1017.8 |
| 20260504042020 | 43 | 182 | 1.7 | 1.7 | 0.00 | 0.17 | 0.00 | 79 | 1017.9 |
| 20260504041025 | 42 | 191 | 0.9 | 1.7 | 0.00 | 0.17 | 0.00 | 83 | 1017.8 |
| 20260504040030 | 42 | 199 | 0.9 | 1.7 | 0.00 | 0.17 | 0.00 | 84 | 1017.8 |
| 20260504035017 | 42 | 172 | 0.9 | 1.7 | 0.00 | 0.17 | 0.17 | 83 | 1017.8 |
| 20260504034022 | 42 | 179 | 0.9 | 1.7 | 0.00 | 0.17 | 0.17 | 83 | 1017.8 |
| 20260504033026 | 41 | 0.0 | 0.0 | 0.00 | 0.17 | 0.17 | 85 | 1017.8 | |
| 20260504032031 | 41 | 0.0 | 0.0 | 0.00 | 0.17 | 0.17 | 86 | 1017.8 | |
| 20260504031038 | 41 | 0.0 | 0.0 | 0.00 | 0.17 | 0.17 | 87 | 1017.8 | |
| 20260504030023 | 41 | 0.0 | 0.0 | 0.00 | 0.17 | 0.17 | 86 | 1017.6 | |
| 20260504025047 | 41 | 0.0 | 0.0 | 0.00 | 0.17 | 0.17 | 85 | 1017.7 | |
| 20260504024032 | 42 | 0.0 | 0.0 | 0.00 | 0.17 | 0.17 | 86 | 1017.8 | |
| 20260504023019 | 42 | 0.0 | 0.0 | 0.00 | 0.17 | 0.17 | 82 | 1017.8 | |
| 20260504022024 | 43 | 168 | 1.7 | 1.7 | 0.00 | 0.17 | 0.17 | 82 | 1017.6 |
| 20260504021049 | 43 | 172 | 0.9 | 1.7 | 0.00 | 0.17 | 0.17 | 83 | 1017.6 |
| 20260504020015 | 43 | 0.0 | 0.0 | 0.00 | 0.17 | 0.17 | 80 | 1017.6 | |
| 20260504015021 | 44 | 170 | 0.9 | 1.7 | 0.00 | 0.17 | 0.17 | 80 | 1017.4 |
| 20260504014047 | 44 | 0.0 | 0.0 | 0.00 | 0.17 | 0.17 | 77 | 1017.3 | |
| 20260504013029 | 45 | 0.0 | 0.0 | 0.00 | 0.17 | 0.17 | 74 | 1017.4 | |
| 20260504012017 | 46 | 167 | 0.0 | 1.7 | 0.00 | 0.17 | 0.17 | 74 | 1017.3 |
| 20260504011021 | 47 | 0.0 | 0.0 | 0.00 | 0.17 | 0.17 | 72 | 1017.2 | |
| 20260504010027 | 48 | 180 | 0.0 | 1.7 | 0.00 | 0.17 | 0.17 | 68 | 1017.1 |
| 20260504005025 | 50 | 172 | 1.7 | 2.6 | 0.00 | 0.17 | 0.17 | 63 | 1017.0 |
| 20260504004017 | 51 | 181 | 1.7 | 2.6 | 0.00 | 0.17 | 0.17 | 58 | 1016.9 |
| 20260504003022 | 52 | 183 | 1.7 | 3.5 | 0.00 | 0.17 | 0.17 | 57 | 1016.9 |
| 20260504002022 | 53 | 208 | 1.7 | 3.5 | 0.00 | 0.17 | 0.17 | 55 | 1016.9 |
| 20260504001019 | 54 | 197 | 0.9 | 1.7 | 0.00 | 0.17 | 0.17 | 54 | 1016.8 |
| 20260504000018 | 56 | 259 | 1.7 | 3.5 | 0.00 | 0.17 | 0.17 | 49 | 1016.6 |
| 20260503235017 | 57 | 275 | 4.3 | 7.0 | 0.00 | 0.17 | 0.17 | 47 | 1016.6 |
| 20260503234015 | 57 | 277 | 4.3 | 7.8 | 0.00 | 0.17 | 0.17 | 47 | 1016.6 |
| 20260503233032 | 59 | 288 | 3.5 | 6.1 | 0.00 | 0.17 | 0.17 | 46 | 1016.6 |
| 20260503232020 | 60 | 269 | 3.5 | 5.2 | 0.00 | 0.17 | 0.17 | 43 | 1016.5 |
| 20260503231024 | 60 | 272 | 4.3 | 7.8 | 0.00 | 0.17 | 0.17 | 43 | 1016.4 |
| 20260503230029 | 61 | 270 | 5.2 | 10.4 | 0.00 | 0.17 | 0.17 | 42 | 1016.4 |
| 20260503225016 | 61 | 305 | 5.2 | 8.7 | 0.00 | 0.17 | 0.17 | 43 | 1016.4 |
| 20260503224102 | 60 | 243 | 4.3 | 6.1 | 0.00 | 0.17 | 0.17 | 43 | 1016.4 |
| 20260503223026 | 60 | 274 | 4.3 | 7.0 | 0.00 | 0.17 | 0.17 | 43 | 1016.4 |
| 20260503222030 | 61 | 287 | 5.2 | 7.8 | 0.00 | 0.17 | 0.17 | 43 | 1016.4 |
| 20260503221017 | 61 | 254 | 4.3 | 7.8 | 0.00 | 0.17 | 0.17 | 42 | 1016.4 |
| 20260503220021 | 61 | 301 | 3.5 | 7.0 | 0.00 | 0.17 | 0.17 | 42 | 1016.4 |
| 20260503215026 | 62 | 286 | 3.5 | 7.0 | 0.00 | 0.17 | 0.17 | 42 | 1016.4 |
| 20260503214031 | 64 | 273 | 5.2 | 7.8 | 0.00 | 0.17 | 0.17 | 40 | 1016.4 |
| 20260503213019 | 64 | 266 | 4.3 | 7.0 | 0.00 | 0.17 | 0.17 | 41 | 1016.5 |
| 20260503212043 | 63 | 275 | 6.1 | 13.0 | 0.00 | 0.17 | 0.17 | 41 | 1016.3 |
| 20260503211028 | 62 | 309 | 4.3 | 8.7 | 0.00 | 0.17 | 0.17 | 43 | 1016.4 |
| 20260503210032 | 63 | 279 | 4.3 | 7.8 | 0.00 | 0.17 | 0.17 | 42 | 1016.5 |
| 20260503205059 | 62 | 284 | 4.3 | 7.8 | 0.00 | 0.17 | 0.17 | 43 | 1016.5 |
| 20260503204024 | 63 | 252 | 6.1 | 11.3 | 0.00 | 0.17 | 0.17 | 43 | 1016.5 |
| 20260503203028 | 63 | 327 | 5.2 | 7.0 | 0.00 | 0.17 | 0.17 | 43 | 1016.5 |
| 20260503202032 | 63 | 288 | 7.0 | 11.3 | 0.00 | 0.17 | 0.17 | 41 | 1016.7 |
| 20260503201019 | 62 | 282 | 7.0 | 9.6 | 0.00 | 0.17 | 0.17 | 42 | 1016.8 |
| 20260503200025 | 62 | 261 | 6.1 | 9.6 | 0.00 | 0.17 | 0.17 | 42 | 1017.0 |
| 20260503195029 | 62 | 288 | 7.8 | 13.9 | 0.00 | 0.17 | 0.17 | 42 | 1017.2 |
| 20260503194036 | 63 | 249 | 7.8 | 9.6 | 0.00 | 0.17 | 0.17 | 42 | 1017.3 |
| 20260503193020 | 62 | 283 | 6.1 | 9.6 | 0.00 | 0.17 | 0.17 | 42 | 1017.4 |
| 20260503192025 | 61 | 308 | 6.1 | 9.6 | 0.00 | 0.17 | 0.17 | 44 | 1017.6 |
| 20260503191030 | 61 | 334 | 5.2 | 10.4 | 0.00 | 0.17 | 0.17 | 42 | 1017.6 |
| 20260503190016 | 62 | 275 | 8.7 | 15.6 | 0.00 | 0.17 | 0.17 | 43 | 1017.6 |
| 20260503185021 | 63 | 277 | 7.0 | 8.7 | 0.00 | 0.17 | 0.17 | 42 | 1017.7 |
| 20260503184025 | 62 | 268 | 7.8 | 12.2 | 0.00 | 0.17 | 0.17 | 43 | 1017.8 |
| 20260503183052 | 62 | 331 | 7.8 | 13.9 | 0.00 | 0.17 | 0.17 | 43 | 1017.9 |
| 20260503182038 | 61 | 275 | 6.1 | 11.3 | 0.00 | 0.17 | 0.17 | 43 | 1017.9 |
| 20260503181022 | 60 | 293 | 6.1 | 10.4 | 0.00 | 0.17 | 0.17 | 43 | 1018.1 |
| 20260503180027 | 60 | 304 | 6.1 | 9.6 | 0.00 | 0.17 | 0.17 | 42 | 1018.1 |
| 20260503175031 | 60 | 348 | 7.0 | 14.8 | 0.00 | 0.17 | 0.17 | 42 | 1018.1 |
| 20260503174018 | 60 | 339 | 7.8 | 11.3 | 0.00 | 0.17 | 0.17 | 42 | 1018.1 |
| 20260503173023 | 59 | 320 | 6.1 | 10.4 | 0.00 | 0.17 | 0.17 | 44 | 1018.1 |
| 20260503172028 | 59 | 286 | 8.7 | 13.0 | 0.00 | 0.17 | 0.17 | 43 | 1018.3 |
| 20260503171047 | 58 | 295 | 7.0 | 13.0 | 0.00 | 0.17 | 0.17 | 44 | 1018.6 |
| 20260503131021 | 46 | 311 | 5.2 | 7.8 | 0.00 | 0.17 | 0.17 | 66 | 1019.8 |
| 20260503110109 | 34 | 0.0 | 0.0 | 0.00 | 0.17 | 0.17 | 87 | 1019.0 | |
| 20260503081020 | 33 | 0.0 | 0.0 | 0.17 | 0.17 | 0.17 | 90 | 1017.4 | |
| 20260503072026 | 33 | 227 | 0.9 | 1.7 | 0.00 | 0.00 | 0.00 | 90 | 1017.1 |
| 20260503071031 | 33 | 316 | 0.9 | 2.6 | 0.00 | 0.00 | 0.00 | 93 | 1016.9 |